www.pogodaiklimat.ru

Погода и климат >> Архив погоды >> Украина >> Измаил


АРХИВ ПОГОДЫ в Измаиле

Время (UTC), дата Ветер
(напр.,м/с)
 
Видим.   Явления Облачность Т
(С)
Тd
(С)
f
(%)
Тe
(С)
Тes
(С)
Комфортность P
(гПа)
Po
(гПа)
Тmin
(С)
Tmax
(С)
R
(мм)
R24
(мм)
S
(см)
00 11.06 С 4 10 км ясно +24.0 +16.5 63 +27 +27 жарко 1011.0 1007.5
03 11.06 СВ 3 20 км ясно +21.0 +17.0 78 +25 +25 комфорт 1011.0 1007.5
06 11.06 СВ 4 20 км 8/0
[Ac trans Ci fib]
+25.2 +18.9 68 +30 +30 душно 1012.0 1008.6 +20.9
09 11.06 СВ 6 20 км 8/0
[Ac trans Ci fib]
+31.2 +16.0 40 +34 +34 душно 1012.0 1008.6
12 11.06 В 7 20 км 6/0
[Ac trans Ci fib]
+32.9 +14.0 32 +34 +36 очень
жарко
1012.0 1008.6
15 11.06 В 6 20 км 3/0
[Ac trans Ci fib]
+32.0 +14.1 34 +34 +35 душно 1011.0 1007.6
18 11.06 СВ 2 20 км 9/0
[Ac trans Ci fib]
+27.5 +16.1 50 +31 +31 душно 1012.0 1008.6 +33.3
21 11.06 штиль 0 10 км 9/0
[Ac trans Ci fib]
+23.8 +16.6 64 +27 +27 жарко 1013.0 1009.5
00 12.06 С 1 10 км 9/0
[Ac trans Ci fib]
+22.7 +15.0 62 +27 +27 душно 1012.0 1008.5
03 12.06 С 2 20 км 9/0
[Ac trans Ci fib]
+20.0 +15.4 75 +23 +23 комфорт 1012.0 1008.5
06 12.06 С 2 20 км 6/0
[Ac trans Ci fib]
+25.9 +17.8 61 +30 +33 душно 1012.0 1008.6 +19.8
09 12.06 С 2 20 км 3/0
[Ci fib]
+31.4 +17.3 43 +35 +48 очень
душно
1012.0 1008.6
12 12.06 СВ 5 20 км 8/4 1000 м
[Cu med, cong Ci fib]
+32.9 +15.8 36 +35 +35 душно 1011.0 1007.6
15 12.06 Ю 2 4000 м слаб. ливневой дождь {гроза} 10/10 600 м
[Cb cap]
+29.2 +18.0 51 +34 +34 очень
душно
1011.0 1007.6
18 12.06 С 2 20 км {гроза, ливн. осадки} 3/3 1000 м
[Sc Ac trans Ci fib]
+28.2 +16.5 49 +32 +32 душно 1011.5 1008.1 +34.3 0.0
21 12.06 СЗ 2 10 км 6/0
[Ac trans Ci fib]
+24.8 +16.5 60 +28 +28 жарко 1012.0 1008.5
00 13.06 С 2 10 км 4/0
[Ci fib]
+22.8 +15.9 65 +27 +27 душно 1012.2 1008.7
03 13.06 З 1 20 км 8/6 1000 м
[Sc Ac trans Ci fib]
+22.2 +16.2 69 +26 +26 душно 1013.0 1009.5
06 13.06 СВ 1 20 км 4/0
[Ac trans]
+26.0 +19.1 66 +31 +38 очень
душно
1014.0 1010.6 +21.8
09 13.06 В 3 20 км 4/0
[Ac trans]
+30.4 +18.5 49 +35 +46 очень
душно
1015.0 1011.6
12 13.06 З 1 20 км гроза без осадков 8/8 600 м
[Cb cap]
+32.4 +20.6 50 +39 +39 очень
душно
1014.0 1010.6
15 13.06 В 4 20 км {гроза, ливн. осадки} 6/6 1000 м
[Cu med, cong]
+28.0 +19.8 61 +34 +35 очень
душно
1014.0 1010.6
18 13.06 ЮВ 1 20 км {гроза, ливн. осадки} 4/0
[Ac trans Ci fib]
+24.5 +17.7 66 +29 +29 душно 1015.0 1011.5 +34.0 2
21 13.06 СЗ 2 10 км ясно +20.4 +17.2 82 +24 +24 комфорт 1016.0 1012.5
00 14.06 СЗ 2 10 км 8/4 1000 м
[Sc Ac trans]
+21.2 +15.7 71 +24 +24 комфорт 1016.0 1012.5
03 14.06 С 2 20 км 8/0
[Ac trans Ci fib]
+21.0 +16.2 74 +25 +25 комфорт 1016.0 1012.5
06 14.06 С 3 20 км 8/0
[Ac trans Ci fib]
+24.6 +17.1 63 +28 +28 душно 1016.0 1012.5 +20.3
09 14.06 С 2 20 км 4/0
[Ac trans Ci fib]
+30.3 +17.4 46 +34 +47 очень
душно
1016.0 1012.6
12 14.06 В 5 20 км 9/3 1000 м
[Cu med, cong Cc]
+32.4 +18.2 43 +37 +37 очень
душно
1016.0 1012.6
15 14.06 В 2 20 км 9/8 1000 м
[Sc Ac trans Ci fib]
+29.9 +17.3 47 +34 +34 очень
душно
1016.0 1012.6
18 14.06 штиль 0 20 км 8/8 1000 м
[Sc]
+27.4 +17.8 56 +32 +32 очень
душно
1016.0 1012.6 +33.4
21 14.06 штиль 0 10 км 6/6 1000 м
[Sc]
+23.0 +17.7 72 +28 +28 душно 1017.0 1013.5
00 15.06 штиль 0 10 км 4/0
[Ac trans]
+22.4 +17.5 74 +27 +27 душно 1016.0 1012.5
03 15.06 штиль 0 20 км 8/0
[Ac trans]
+21.4 +17.0 76 +25 +25 комфорт 1015.0 1011.5
06 15.06 СВ 1 20 км 6/0
[Ac trans]
+28.2 +19.4 59 +34 +38 очень
душно
1016.0 1012.6 +21.1
09 15.06 СВ 3 20 км 9/4 1000 м
[Cu med, cong Ac trans Ci fib]
+32.0 +19.6 48 +38 +38 очень
душно
1015.0 1011.6
12 15.06 ЮВ 2 4000 м гроза, ливневой дождь 9/9 600 м
[Cb cap]
+23.4 +17.8 71 +29 +29 душно 1014.0 1010.5 3
15 15.06 СЗ 6 20 км {гроза, ливн. осадки} 9/8 600 м
[Cb cap Ac trans]
+25.0 +18.2 66 +29 +29 душно 1014.0 1010.5
18 15.06 штиль 0 20 км {гроза, ливн. осадки} 9/4 1000 м
[Sc Ac trans Ci fib]
+23.0 +18.1 74 +29 +29 очень
душно
1013.0 1009.5 +32.2 4
21 15.06 З 2 10 км ясно +20.1 +16.1 78 +23 +23 комфорт 1014.0 1010.5
00 16.06 СЗ 1 10 км ясно +19.0 +16.6 86 +22 +22 комфорт 1012.0 1008.5
03 16.06 СЗ 1 4000 м дымка ясно +18.5 +16.8 90 +20 +21 1012.0 1008.5
06 16.06 С 1 20 км ясно +25.2 +18.9 68 +30 +39 душно 1013.0 1009.6 +18.4
09 16.06 СВ 2 20 км 3/3 1000 м
[Cu hum]
+31.0 +17.3 44 +35 +48 очень
душно
1013.0 1009.6
12 16.06 СВ 3 20 км 6/3 1000 м
[Cu med, cong Ac trans]
+30.6 +16.9 44 +34 +40 очень
душно
1012.0 1008.6
15 16.06 В 3 20 км 6/0
[Ac trans Ci fib]
+31.8 +14.9 36 +34 +35 душно 1012.0 1008.6
18 16.06 Ю 1 20 км 6/1 1000 м
[Sc Ac trans Ci fib]
+26.6 +16.5 54 +30 +30 душно 1012.0 1008.6 +32.8
21 16.06 СЗ 2 10 км ясно +22.4 +17.1 72 +27 +27 душно 1012.0 1008.5
00 17.06 С 2 10 км 4/0
[Ci fib]
+22.0 +17.6 76 +27 +27 душно 1012.0 1008.5
03 17.06 СВ 2 20 км 3/1 1000 м
[Sc Ci fib]
+21.6 +17.0 75 +26 +26 душно 1013.0 1009.5
06 17.06 СВ 2 20 км ясно +26.8 +20.1 67 +33 +41 очень
душно
1014.0 1010.6 +21.5
09 17.06 В 3 20 км ясно +31.0 +17.7 45 +35 +50 очень
душно
1014.0 1010.6
12 17.06 В 5 20 км 3/0
[Ci fib]
+32.2 +16.5 39 +35 +41 очень
душно
1013.0 1009.6
15 17.06 ЮВ 4 20 км 3/0
[Ci fib]
+30.6 +16.9 44 +34 +36 очень
душно
1013.0 1009.6
18 17.06 В 2 20 км 4/0
[Ci fib]
+27.4 +16.0 50 +31 +31 душно 1013.0 1009.6 +33.1

 

Местоположение метеостанции Измаил (Одесская область, Украина): широта 45.37 долгота 28.85 высота над уровнем моря 30 м.

В архиве по умолчанию представлена погода в Измаиле за последнюю неделю. Архивные данные за месяц целиком и за предыдущие месяцы, начиная с января 2011 года, Вы можете получить, выбрав интересующий диапазон дат из раскрывающегося списка и нажав кнопку "Ввод!".


*Определитесь, кто Вы:
робот инопланетянин человек

Внимание! Время в таблицах - всемирное. Для получения местного времени необходимо прибавить поправку, которая равна 2 ч.

Смотрите также архив погоды в соседних городах и на ближайших метеорологических станциях:

Погода в Тулче (Румыния) (21 км)
Погода в Горгове (Румыния) (33 км)
Погода в Махмудиа (Румыния) (37 км)
Погода в Болграде (Одесская область, Украина) (38 км)
Погода в Галаце (Румыния) (65 км)
Погода в Журиловке (Румыния) (67 км)
Погода в Сулине (Румыния) (72 км)
Погода в Кагуле (Молдова) (74 км)
Погода в Брэиле (Румыния) (75 км)
Погода в Вилково (Одесская область, Украина) (76 км)

Пояснения к столбцам:

Ветер - указаны скорость ветра в м/с - средняя за 10 мин, порывы в срок и между сроками (в фигурных скобках) и направление, откуда дует ветер: С - северный, СВ - северо-восточный, В - восточный, ЮВ - юго-восточный, Ю - южный, ЮЗ - юго-западный, З - западный, СЗ - северо-западный.
Видимость - горизонтальная дальность видимости в метрах или километрах. При видимости от 1 до 10 км при отсутствии осадков обычно наблюдается дымка, при ухудшении видимости до 1 км и менее - туман. В сухую погоду видимость может ухудшаться дымом, пылью или мглою.
Явления - указаны атмосферные явления, наблюдавшиеся в срок или в последний час перед сроком; фигурными скобками обозначены явления, наблюдавшиеся между сроками (за 1-3 часа до срока); квадратными скобками обозначены град или гололедные отложения с указанием их диаметра в мм.
Облачность - указаны через наклонную черту общая и нижняя облачность в баллах и высота нижней границы облаков в метрах; квадратными скобками обозначены формы облаков: Ci - перистые, Cs - перисто-слоистые, Cc - перисто-кучевые, Ac - высококучевые, As - высокослоистые, Sc - слоисто-кучевые, Ns - слоисто-дождевые, Cu - кучевые, Cb - кучево-дождевые. Подробнее классификацию облаков см. в Атласе облаков (PDF).
T - Температура воздуха - температура, измеренная на высоте 2 м над землей.
Td - Температура точки росы - температура, при понижении до которой содержащийся в воздухе водяной пар достигнет насыщения.
f - Относительная влажность воздуха - влажноcть воздуха, измеренная на высоте 2 м над землей.
Te - Эффективная температура - температура, которую ощущает одетый по сезону человек в тени. Характеристика душности погоды. При расчете учитывается влияние влажности воздуха и скорости ветра на теплоощущения человека.
Tes - Эффективная температура на солнце - температура, которую ощущает человек, с поправкой на солнечный нагрев. Характеристика знойности погоды. Зависит от высоты солнца над горизонтом, облачности и скорости ветра. Ночью, в пасмурную погоду, а также при ветре 12 м/с и более поправка равна нулю.
P - Атмосферное давление - приведенное к уровню моря атмосферное давление.
Po - Атмосферное давление - измеренное на уровне метеостанции атмосферное давление.
Tmin - Минимальная температура - минимум температуры воздуха на высоте 2 м над землей.
Tmax - Максимальная температура - максимум температуры воздуха на высоте 2 м над землей.
R - Количество осадков - Количество выпавших осадков за период времени, мм. При наведении курсора мыши на число - период времени, за который выпало указанное количество осадков.
R24 - Количество осадков - Количество выпавших осадков за 24 часа, мм.
S - Снежный покров - Высота снежного покрова, см. При наведении курсора мыши на число - состояние снежного покрова и степень покрытия местности в баллах.